Time,TemperatureF,DewpointF,PressureIn,WindDirection,WindDirectionDegrees,WindSpeedMPH,WindSpeedGustMPH,Humidity,HourlyPrecipIn,Conditions,Clouds,dailyrainin,SoftwareType,DateUTC
2013-01-19 00:03:00,42.4,27.4,28.76,WSW,248,9.4,9.4,55,0.00,CLR,,0.00,WeatherDisplay:10.37,2013-01-19 06:03:00,
2013-01-19 00:08:00,42.4,27.4,28.76,South,180,7.3,7.3,55,0.00,CLR,,0.00,WeatherDisplay:10.37,2013-01-19 06:08:00,
2013-01-19 00:13:00,42.6,27.5,28.76,SW,225,8.1,8.1,55,0.00,CLR,,0.00,WeatherDisplay:10.37,2013-01-19 06:13:00,
2013-01-19 00:18:00,42.4,27.4,28.75,SSW,202,8.8,8.8,55,0.00,CLR,,0.00,WeatherDisplay:10.37,2013-01-19 06:18:00,
2013-01-19 00:23:00,42.6,27.5,28.75,SW,225,6.9,6.9,55,0.00,CLR,,0.00,WeatherDisplay:10.37,2013-01-19 06:23:00,
2013-01-19 00:28:00,42.4,27.4,28.75,SSW,202,6.9,6.9,55,0.00,CLR,,0.00,WeatherDisplay:10.37,2013-01-19 06:28:00,
2013-01-19 00:33:00,42.4,27.4,28.75,ESE,112,8.1,8.1,55,0.00,CLR,,0.00,WeatherDisplay:10.37,2013-01-19 06:33:00,
2013-01-19 00:38:00,42.3,27.3,28.75,SSW,202,9.2,9.2,55,0.00,CLR,,0.00,WeatherDisplay:10.37,2013-01-19 06:38:00,
2013-01-19 00:43:00,42.1,27.1,28.75,South,180,6.9,6.9,55,0.00,CLR,,0.00,WeatherDisplay:10.37,2013-01-19 06:43:00,
2013-01-19 00:48:00,42.1,27.5,28.75,SSW,202,6.9,6.9,56,0.00,CLR,,0.00,WeatherDisplay:10.37,2013-01-19 06:48:00,
2013-01-19 00:53:00,42.1,27.5,28.76,South,180,8.1,8.1,56,0.00,CLR,,0.00,WeatherDisplay:10.37,2013-01-19 06:53:00,
2013-01-19 00:58:00,41.7,27.1,28.76,SSW,202,5.8,5.9,56,0.00,CLR,,0.00,WeatherDisplay:10.37,2013-01-19 06:58:00,
2013-01-19 01:03:00,41.9,27.3,28.75,ESE,112,5.8,6.1,56,0.00,CLR,,0.00,WeatherDisplay:10.37,2013-01-19 07:03:00,
2013-01-19 01:08:00,41.7,27.1,28.75,South,180,5.8,5.8,56,0.00,CLR,,0.00,WeatherDisplay:10.37,2013-01-19 07:08:00,
2013-01-19 01:13:00,41.7,27.6,28.75,ENE,68,8.1,8.1,57,0.00,CLR,,0.00,WeatherDisplay:10.37,2013-01-19 07:13:00,
2013-01-19 01:18:00,41.7,27.6,28.75,SE,135,5.8,5.8,57,0.00,CLR,,0.00,WeatherDisplay:10.37,2013-01-19 07:18:00,
2013-01-19 01:23:00,41.7,27.6,28.75,South,180,6.9,6.9,57,0.00,CLR,,0.00,WeatherDisplay:10.37,2013-01-19 07:23:00,
2013-01-19 01:28:00,41.9,27.8,28.75,SSW,202,7.3,7.3,57,0.00,CLR,,0.00,WeatherDisplay:10.37,2013-01-19 07:28:00,
2013-01-19 01:33:00,41.7,27.6,28.75,SW,225,5.8,5.8,57,0.00,CLR,,0.00,WeatherDisplay:10.37,2013-01-19 07:33:00,
2013-01-19 01:38:00,41.7,27.6,28.75,South,180,5.8,5.8,57,0.00,CLR,,0.00,WeatherDisplay:10.37,2013-01-19 07:38:00,
2013-01-19 01:43:00,41.9,27.8,28.75,SSE,158,9.2,9.2,57,0.00,CLR,,0.00,WeatherDisplay:10.37,2013-01-19 07:43:00,
2013-01-19 01:48:00,41.7,27.6,28.75,West,270,5.8,5.8,57,0.00,CLR,,0.00,WeatherDisplay:10.37,2013-01-19 07:48:00,
2013-01-19 01:53:00,41.5,27.8,28.75,WSW,248,6.8,6.8,58,0.00,CLR,,0.00,WeatherDisplay:10.37,2013-01-19 07:53:00,
2013-01-19 01:58:00,41.5,27.8,28.75,SSW,202,5.8,5.8,58,0.00,CLR,,0.00,WeatherDisplay:10.37,2013-01-19 07:58:00,
2013-01-19 02:03:00,41.5,27.8,28.75,South,180,6.3,6.3,58,0.00,CLR,,0.00,WeatherDisplay:10.37,2013-01-19 08:03:00,
2013-01-19 02:08:00,41.7,28.0,28.75,SW,225,6.9,6.9,58,0.00,CLR,,0.00,WeatherDisplay:10.37,2013-01-19 08:08:00,
2013-01-19 02:13:00,41.7,28.0,28.75,SSW,202,7.8,7.8,58,0.00,CLR,,0.00,WeatherDisplay:10.37,2013-01-19 08:13:00,
2013-01-19 02:18:00,41.7,28.0,28.75,WSW,248,6.9,6.9,58,0.00,CLR,,0.00,WeatherDisplay:10.37,2013-01-19 08:18:00,
2013-01-19 02:23:00,41.9,28.2,28.75,South,180,9.2,9.2,58,0.00,CLR,,0.00,WeatherDisplay:10.37,2013-01-19 08:23:00,
2013-01-19 02:28:00,41.5,27.8,28.75,ESE,112,8.3,8.3,58,0.00,CLR,,0.00,WeatherDisplay:10.37,2013-01-19 08:28:00,
2013-01-19 02:33:00,41.7,28.0,28.75,South,180,8.1,8.1,58,0.00,CLR,,0.00,WeatherDisplay:10.37,2013-01-19 08:33:00,
2013-01-19 02:39:00,41.7,28.0,28.75,SSE,158,6.9,6.9,58,0.00,CLR,,0.00,WeatherDisplay:10.37,2013-01-19 08:39:00,
2013-01-19 02:44:00,41.7,28.4,28.74,SW,225,8.1,8.1,59,0.00,CLR,,0.00,WeatherDisplay:10.37,2013-01-19 08:44:00,
2013-01-19 02:49:00,41.4,28.1,28.74,South,180,6.8,6.8,59,0.00,CLR,,0.00,WeatherDisplay:10.37,2013-01-19 08:49:00,
2013-01-19 02:54:00,41.5,28.2,28.74,SSW,202,8.1,8.1,59,0.00,CLR,,0.00,WeatherDisplay:10.37,2013-01-19 08:54:00,
2013-01-19 02:59:00,41.7,28.4,28.74,SSW,202,9.2,9.2,59,0.00,CLR,,0.00,WeatherDisplay:10.37,2013-01-19 08:59:00,
2013-01-19 03:04:00,41.5,28.2,28.74,SW,225,8.1,8.1,59,0.00,CLR,,0.00,WeatherDisplay:10.37,2013-01-19 09:04:00,
2013-01-19 03:09:00,41.9,28.6,28.74,SE,135,9.2,9.2,59,0.00,CLR,,0.00,WeatherDisplay:10.37,2013-01-19 09:09:00,
2013-01-19 03:14:00,42.1,28.8,28.74,WSW,248,8.1,8.1,59,0.00,CLR,,0.00,WeatherDisplay:10.37,2013-01-19 09:14:00,
2013-01-19 03:19:00,41.9,28.6,28.73,South,180,8.1,8.1,59,0.00,CLR,,0.00,WeatherDisplay:10.37,2013-01-19 09:19:00,
2013-01-19 03:24:00,41.9,28.6,28.73,ESE,112,8.1,8.1,59,0.00,CLR,,0.00,WeatherDisplay:10.37,2013-01-19 09:24:00,
2013-01-19 03:29:00,41.9,28.6,28.73,SSW,202,6.9,6.9,59,0.00,CLR,,0.00,WeatherDisplay:10.37,2013-01-19 09:29:00,
2013-01-19 03:34:00,41.7,28.8,28.73,South,180,6.9,6.9,60,0.00,CLR,,0.00,WeatherDisplay:10.37,2013-01-19 09:34:00,
2013-01-19 03:39:00,41.7,28.8,28.73,South,180,6.9,6.9,60,0.00,CLR,,0.00,WeatherDisplay:10.37,2013-01-19 09:39:00,
2013-01-19 03:44:00,41.9,29.0,28.73,WSW,248,6.9,6.9,60,0.00,CLR,,0.00,WeatherDisplay:10.37,2013-01-19 09:44:00,
2013-01-19 03:49:00,41.7,28.8,28.73,WNW,292,7.8,7.8,60,0.00,CLR,,0.00,WeatherDisplay:10.37,2013-01-19 09:49:00,
2013-01-19 03:54:00,41.7,28.8,28.73,SSE,158,6.9,6.9,60,0.00,CLR,,0.00,WeatherDisplay:10.37,2013-01-19 09:54:00,
2013-01-19 03:59:00,41.7,28.8,28.73,South,180,6.9,6.9,60,0.00,CLR,,0.00,WeatherDisplay:10.37,2013-01-19 09:59:00,
2013-01-19 04:04:00,41.5,29.0,28.72,SSW,202,6.9,6.9,61,0.00,CLR,,0.00,WeatherDisplay:10.37,2013-01-19 10:04:00,
2013-01-19 04:09:00,41.5,29.0,28.72,SSE,158,5.8,5.8,61,0.00,CLR,,0.00,WeatherDisplay:10.37,2013-01-19 10:09:00,
2013-01-19 04:14:00,41.5,29.0,28.72,SE,135,6.3,6.3,61,0.00,CLR,,0.00,WeatherDisplay:10.37,2013-01-19 10:14:00,
2013-01-19 04:19:00,41.5,29.0,28.72,SSW,202,6.8,6.8,61,0.00,CLR,,0.00,WeatherDisplay:10.37,2013-01-19 10:19:00,
2013-01-19 04:24:00,41.5,29.0,28.72,SW,225,5.3,5.3,61,0.00,CLR,,0.00,WeatherDisplay:10.37,2013-01-19 10:24:00,
2013-01-19 04:29:00,41.7,29.6,28.72,SW,225,9.2,9.2,62,0.00,CLR,,0.00,WeatherDisplay:10.37,2013-01-19 10:29:00,
2013-01-19 04:34:00,41.7,29.6,28.72,West,270,6.9,6.9,62,0.00,CLR,,0.00,WeatherDisplay:10.37,2013-01-19 10:34:00,
2013-01-19 04:39:00,41.7,29.6,28.72,WSW,248,6.9,6.9,62,0.00,CLR,,0.00,WeatherDisplay:10.37,2013-01-19 10:39:00,
2013-01-19 04:45:00,41.4,29.7,28.72,South,180,5.8,5.8,63,0.00,CLR,,0.00,WeatherDisplay:10.37,2013-01-19 10:45:00,
2013-01-19 04:50:00,41.2,29.5,28.72,WSW,248,6.8,6.8,63,0.00,CLR,,0.00,WeatherDisplay:10.37,2013-01-19 10:50:00,
2013-01-19 04:55:00,41.4,29.7,28.72,NE,45,5.8,5.8,63,0.00,CLR,,0.00,WeatherDisplay:10.37,2013-01-19 10:55:00,
2013-01-19 05:00:00,41.4,29.7,28.72,South,170,5.0,7.0,63,0.00,CLR,,0.00,WeatherDisplay:10.37,2013-01-19 11:00:00,
2013-01-19 05:05:00,41.2,29.5,28.72,SW,225,6.9,6.9,63,0.00,CLR,,0.00,WeatherDisplay:10.37,2013-01-19 11:05:00,
2013-01-19 05:10:00,41.4,29.7,28.72,WNW,292,6.8,6.8,63,0.00,CLR,,0.00,WeatherDisplay:10.37,2013-01-19 11:10:00,
2013-01-19 05:15:00,41.4,30.1,28.72,SSW,202,6.0,7.0,64,0.00,CLR,,0.00,WeatherDisplay:10.37,2013-01-19 11:15:00,
2013-01-19 06:47:00,41.7,31.2,28.71,SSW,202,6.9,6.9,66,0.00,CLR,,0.00,WeatherDisplay:10.37,2013-01-19 12:47:00,
2013-01-19 06:48:00,41.7,31.2,28.71,ESE,112,6.9,6.9,66,0.00,CLR,,0.00,WeatherDisplay:10.37,2013-01-19 12:48:00,
2013-01-19 06:49:00,41.7,31.2,28.71,SSW,202,6.9,6.9,66,0.00,CLR,,0.00,WeatherDisplay:10.37,2013-01-19 12:49:00,
2013-01-19 06:54:00,41.7,31.2,28.71,WNW,292,6.3,6.3,66,0.00,CLR,,0.00,WeatherDisplay:10.37,2013-01-19 12:54:00,
2013-01-19 06:59:00,41.7,31.2,28.71,WSW,248,6.9,6.9,66,0.00,CLR,,0.00,WeatherDisplay:10.37,2013-01-19 12:59:00,
2013-01-19 07:04:00,41.5,31.0,28.71,SW,225,6.9,6.9,66,0.00,CLR,,0.00,WeatherDisplay:10.37,2013-01-19 13:04:00,
2013-01-19 07:09:00,41.5,31.4,28.71,SSE,158,8.1,8.1,67,0.00,CLR,,0.00,WeatherDisplay:10.37,2013-01-19 13:09:00,
2013-01-19 07:14:00,41.4,31.3,28.71,SSE,158,6.9,6.9,67,0.00,CLR,,0.00,WeatherDisplay:10.37,2013-01-19 13:14:00,
2013-01-19 07:19:00,41.2,31.1,28.71,WNW,292,6.9,6.9,67,0.00,CLR,,0.00,WeatherDisplay:10.37,2013-01-19 13:19:00,
2013-01-19 07:24:00,41.2,31.4,28.71,WSW,248,6.9,6.9,68,0.00,CLR,,0.00,WeatherDisplay:10.37,2013-01-19 13:24:00,
2013-01-19 07:29:00,41.2,31.4,28.71,East,90,8.1,8.1,68,0.00,CLR,,0.00,WeatherDisplay:10.37,2013-01-19 13:29:00,
2013-01-19 07:34:00,41.2,31.4,28.71,South,180,8.1,8.1,68,0.00,CLR,,0.00,WeatherDisplay:10.37,2013-01-19 13:34:00,
2013-01-19 07:39:00,41.2,31.4,28.71,South,180,6.9,6.9,68,0.00,CLR,,0.00,WeatherDisplay:10.37,2013-01-19 13:39:00,
2013-01-19 07:44:00,41.4,31.6,28.71,SW,225,7.3,7.3,68,0.00,CLR,,0.00,WeatherDisplay:10.37,2013-01-19 13:44:00,
2013-01-19 07:49:00,41.5,31.7,28.71,SSE,158,8.1,8.1,68,0.00,CLR,,0.00,WeatherDisplay:10.37,2013-01-19 13:49:00,
2013-01-19 07:54:00,41.5,31.7,28.71,SSE,158,10.4,10.4,68,0.00,CLR,,0.00,WeatherDisplay:10.37,2013-01-19 13:54:00,
2013-01-19 07:59:00,41.7,31.5,28.71,SSW,202,9.2,9.2,67,0.00,CLR,,0.00,WeatherDisplay:10.37,2013-01-19 13:59:00,
2013-01-19 08:04:00,42.1,31.9,28.71,South,180,7.8,7.8,67,0.00,CLR,,0.00,WeatherDisplay:10.37,2013-01-19 14:04:00,
2013-01-19 08:09:00,42.3,32.1,28.71,SE,135,8.1,8.1,67,0.00,CLR,,0.00,WeatherDisplay:10.37,2013-01-19 14:09:00,
2013-01-19 08:14:00,42.6,32.0,28.71,ESE,112,8.8,8.8,66,0.00,CLR,,0.00,WeatherDisplay:10.37,2013-01-19 14:14:00,
2013-01-19 08:19:00,42.8,32.2,28.71,SW,225,8.1,8.1,66,0.00,CLR,,0.00,WeatherDisplay:10.37,2013-01-19 14:19:00,
2013-01-19 08:24:00,43.0,32.4,28.71,SE,135,11.5,11.5,66,0.00,CLR,,0.00,WeatherDisplay:10.37,2013-01-19 14:24:00,
2013-01-19 08:29:00,43.2,32.6,28.71,NNW,338,6.9,6.9,66,0.00,CLR,,0.00,WeatherDisplay:10.37,2013-01-19 14:29:00,
2013-01-19 08:34:00,43.3,32.3,28.71,WSW,248,8.1,8.1,65,0.00,CLR,,0.00,WeatherDisplay:10.37,2013-01-19 14:34:00,
2013-01-19 08:39:00,43.7,32.7,28.72,South,180,8.3,8.3,65,0.00,CLR,,0.00,WeatherDisplay:10.37,2013-01-19 14:39:00,
2013-01-19 08:44:00,44.1,32.7,28.72,WSW,248,8.3,8.3,64,0.00,CLR,,0.00,WeatherDisplay:10.37,2013-01-19 14:44:00,
2013-01-19 08:49:00,44.6,33.2,28.72,SE,135,8.8,8.8,64,0.00,CLR,,0.00,WeatherDisplay:10.37,2013-01-19 14:49:00,
2013-01-19 08:54:00,45.0,33.2,28.72,South,180,9.2,9.2,63,0.00,CLR,,0.00,WeatherDisplay:10.37,2013-01-19 14:54:00,
2013-01-19 08:59:00,45.5,33.6,28.72,SSE,158,9.4,9.4,63,0.00,CLR,,0.00,WeatherDisplay:10.37,2013-01-19 14:59:00,
2013-01-19 09:04:00,45.9,33.6,28.73,SSE,158,9.2,9.2,62,0.00,CLR,,0.00,WeatherDisplay:10.37,2013-01-19 15:04:00,
2013-01-19 09:09:00,46.4,34.1,28.73,SW,225,8.1,8.1,62,0.00,CLR,,0.00,WeatherDisplay:10.37,2013-01-19 15:09:00,
2013-01-19 09:14:00,46.6,33.9,28.73,SW,225,9.2,9.2,61,0.00,CLR,,0.00,WeatherDisplay:10.37,2013-01-19 15:14:00,
2013-01-19 09:19:00,47.1,33.9,28.73,SSW,202,9.9,9.9,60,0.00,CLR,,0.00,WeatherDisplay:10.37,2013-01-19 15:19:00,
2013-01-19 09:24:00,47.7,34.5,28.73,South,180,6.3,6.9,60,0.00,CLR,,0.00,WeatherDisplay:10.37,2013-01-19 15:24:00,
2013-01-19 09:29:00,48.4,34.7,28.73,SW,225,8.3,8.3,59,0.00,CLR,,0.00,WeatherDisplay:10.37,2013-01-19 15:29:00,
2013-01-19 09:34:00,49.3,34.7,28.73,SSE,158,10.4,10.4,57,0.00,CLR,,0.00,WeatherDisplay:10.37,2013-01-19 15:34:00,
2013-01-19 09:39:00,50.4,35.3,28.73,SE,135,8.1,8.1,56,0.00,CLR,,0.00,WeatherDisplay:10.37,2013-01-19 15:39:00,
2013-01-19 09:44:00,50.7,35.1,28.74,ENE,68,8.1,8.1,55,0.00,CLR,,0.00,WeatherDisplay:10.37,2013-01-19 15:44:00,
2013-01-19 09:49:00,51.8,35.7,28.74,WSW,248,8.1,8.1,54,0.00,CLR,,0.00,WeatherDisplay:10.37,2013-01-19 15:49:00,
2013-01-19 09:54:00,52.0,35.9,28.74,SW,225,10.4,10.4,54,0.00,CLR,,0.00,WeatherDisplay:10.37,2013-01-19 15:54:00,
2013-01-19 09:59:00,52.7,36.0,28.74,NNW,338,8.1,8.1,53,0.00,CLR,,0.00,WeatherDisplay:10.37,2013-01-19 15:59:00,
2013-01-19 10:04:00,53.4,36.2,28.74,SSW,202,9.2,9.2,52,0.00,CLR,,0.00,WeatherDisplay:10.37,2013-01-19 16:04:00,
2013-01-19 10:09:00,53.2,36.0,28.74,SSW,202,10.4,10.4,52,0.00,CLR,,0.00,WeatherDisplay:10.37,2013-01-19 16:09:00,
2013-01-19 10:14:00,53.6,35.9,28.74,SSW,202,10.4,10.4,51,0.00,CLR,,0.00,WeatherDisplay:10.37,2013-01-19 16:14:00,
2013-01-19 10:19:00,54.0,36.3,28.74,ESE,112,10.4,10.4,51,0.00,CLR,,0.00,WeatherDisplay:10.37,2013-01-19 16:19:00,
2013-01-19 10:24:00,54.3,36.5,28.74,South,180,13.8,13.8,51,0.00,CLR,,0.00,WeatherDisplay:10.37,2013-01-19 16:24:00,
2013-01-19 10:29:00,54.5,36.2,28.74,West,270,15.0,15.0,50,0.00,CLR,,0.00,WeatherDisplay:10.37,2013-01-19 16:29:00,
2013-01-19 10:34:00,54.9,36.6,28.74,SW,225,10.4,10.4,50,0.00,CLR,,0.00,WeatherDisplay:10.37,2013-01-19 16:34:00,
2013-01-19 10:39:00,54.9,36.1,28.74,WSW,248,11.5,11.5,49,0.00,CLR,,0.00,WeatherDisplay:10.37,2013-01-19 16:39:00,
2013-01-19 10:44:00,54.9,36.1,28.74,South,180,12.7,12.7,49,0.00,CLR,,0.00,WeatherDisplay:10.37,2013-01-19 16:44:00,
2013-01-19 10:49:00,55.4,36.5,28.74,SW,225,15.0,15.0,49,0.00,CLR,,0.00,WeatherDisplay:10.37,2013-01-19 16:49:00,
2013-01-19 10:54:00,55.9,36.5,28.74,NNE,22,10.4,10.4,48,0.00,CLR,,0.00,WeatherDisplay:10.37,2013-01-19 16:54:00,
2013-01-19 11:00:00,55.8,36.4,28.74,South,172,9.0,13.0,48,0.00,CLR,,0.00,WeatherDisplay:10.37,2013-01-19 17:00:00,
2013-01-19 11:05:00,55.7,36.3,28.73,SSW,200,8.0,14.0,48,0.00,CLR,,0.00,WeatherDisplay:10.37,2013-01-19 17:05:00,
2013-01-19 11:10:00,56.8,36.8,28.73,SSW,205,8.0,13.0,47,0.00,CLR,,0.00,WeatherDisplay:10.37,2013-01-19 17:10:00,
2013-01-19 11:15:00,56.3,36.8,28.73,WSW,248,10.4,10.4,48,0.00,CLR,,0.00,WeatherDisplay:10.37,2013-01-19 17:15:00,
2013-01-19 11:20:00,56.5,36.5,28.73,West,270,11.9,11.9,47,0.00,CLR,,0.00,WeatherDisplay:10.37,2013-01-19 17:20:00,
2013-01-19 11:26:00,56.5,36.5,28.73,West,270,11.9,11.9,47,0.00,CLR,,0.00,WeatherDisplay:10.37,2013-01-19 17:26:00,
2013-01-19 11:31:00,56.3,36.8,28.72,SE,135,12.7,12.7,48,0.00,CLR,,0.00,WeatherDisplay:10.37,2013-01-19 17:31:00,
2013-01-19 11:37:00,56.8,36.8,28.72,ESE,112,9.2,9.2,47,0.00,CLR,,0.00,WeatherDisplay:10.37,2013-01-19 17:37:00,
2013-01-19 11:43:00,56.8,36.2,28.71,SSW,202,12.7,12.7,46,0.00,CLR,,0.00,WeatherDisplay:10.37,2013-01-19 17:43:00,
2013-01-19 11:48:00,57.2,36.6,28.71,South,180,9.4,9.4,46,0.00,CLR,,0.00,WeatherDisplay:10.37,2013-01-19 17:48:00,
2013-01-19 11:53:00,56.8,36.8,28.71,SE,135,6.9,6.9,47,0.00,CLR,,0.00,WeatherDisplay:10.37,2013-01-19 17:53:00,
2013-01-19 11:58:00,57.9,37.2,28.71,South,180,9.2,9.2,46,0.00,CLR,,0.00,WeatherDisplay:10.37,2013-01-19 17:58:00,
2013-01-19 12:03:00,58.3,37.6,28.71,WNW,292,9.2,9.2,46,0.00,CLR,,0.00,WeatherDisplay:10.37,2013-01-19 18:03:00,
2013-01-19 12:09:00,58.5,37.2,28.70,South,180,10.4,10.4,45,0.00,CLR,,0.00,WeatherDisplay:10.37,2013-01-19 18:09:00,
2013-01-19 12:14:00,59.4,37.5,28.70,SSW,202,10.4,10.4,44,0.00,CLR,,0.00,WeatherDisplay:10.37,2013-01-19 18:14:00,
2013-01-19 12:19:00,59.2,37.3,28.70,West,270,8.1,8.1,44,0.00,CLR,,0.00,WeatherDisplay:10.37,2013-01-19 18:19:00,
2013-01-19 12:24:00,60.1,38.1,28.70,South,180,6.8,6.8,44,0.00,CLR,,0.00,WeatherDisplay:10.37,2013-01-19 18:24:00,
2013-01-19 12:29:00,59.7,37.2,28.69,East,90,8.1,8.1,43,0.00,CLR,,0.00,WeatherDisplay:10.37,2013-01-19 18:29:00,
2013-01-19 12:34:00,59.7,37.7,28.69,WSW,248,9.2,9.2,44,0.00,CLR,,0.00,WeatherDisplay:10.37,2013-01-19 18:34:00,
2013-01-19 12:39:00,60.1,37.5,28.68,SSE,158,11.5,11.5,43,0.00,CLR,,0.00,WeatherDisplay:10.37,2013-01-19 18:39:00,
2013-01-19 12:44:00,60.1,38.1,28.68,ESE,112,5.8,5.8,44,0.00,CLR,,0.00,WeatherDisplay:10.37,2013-01-19 18:44:00,
2013-01-19 12:49:00,60.3,37.7,28.68,South,180,10.4,10.4,43,0.00,CLR,,0.00,WeatherDisplay:10.37,2013-01-19 18:49:00,
2013-01-19 12:54:00,61.2,38.5,28.67,SSW,202,9.2,9.2,43,0.00,CLR,,0.00,WeatherDisplay:10.37,2013-01-19 18:54:00,
2013-01-19 13:00:00,61.0,37.7,28.67,SW,225,8.1,8.1,42,0.00,CLR,,0.00,WeatherDisplay:10.37,2013-01-19 19:00:00,
2013-01-19 13:05:00,61.2,37.9,28.67,West,270,8.1,8.1,42,0.00,CLR,,0.00,WeatherDisplay:10.37,2013-01-19 19:05:00,
2013-01-19 13:10:00,61.9,37.9,28.67,SSE,158,11.5,11.5,41,0.00,CLR,,0.00,WeatherDisplay:10.37,2013-01-19 19:10:00,
2013-01-19 13:16:00,61.9,37.9,28.66,North,360,5.8,5.8,41,0.00,CLR,,0.00,WeatherDisplay:10.37,2013-01-19 19:16:00,
2013-01-19 13:22:00,61.9,37.9,28.66,West,270,10.4,10.4,41,0.00,CLR,,0.00,WeatherDisplay:10.37,2013-01-19 19:22:00,
2013-01-19 13:28:00,62.4,37.7,28.66,East,90,5.8,5.8,40,0.00,CLR,,0.00,WeatherDisplay:10.37,2013-01-19 19:28:00,
2013-01-19 13:33:00,63.3,38.6,28.66,ENE,68,5.8,5.8,40,0.00,CLR,,0.00,WeatherDisplay:10.37,2013-01-19 19:33:00,
2013-01-19 13:38:00,62.2,38.2,28.66,SSW,202,9.2,9.2,41,0.00,CLR,,0.00,WeatherDisplay:10.37,2013-01-19 19:38:00,
2013-01-19 13:43:00,62.2,37.6,28.66,SE,135,9.4,9.4,40,0.00,CLR,,0.00,WeatherDisplay:10.37,2013-01-19 19:43:00,
2013-01-19 13:48:00,62.4,37.1,28.66,West,270,13.8,13.8,39,0.00,CLR,,0.00,WeatherDisplay:10.37,2013-01-19 19:48:00,
2013-01-19 13:54:00,61.9,37.3,28.65,SSE,158,11.5,11.5,40,0.00,CLR,,0.00,WeatherDisplay:10.37,2013-01-19 19:54:00,
2013-01-19 13:59:00,62.8,37.5,28.65,West,270,6.3,6.3,39,0.00,CLR,,0.00,WeatherDisplay:10.37,2013-01-19 19:59:00,
2013-01-19 14:04:00,62.2,36.9,28.65,ESE,112,9.2,9.2,39,0.00,CLR,,0.00,WeatherDisplay:10.37,2013-01-19 20:04:00,
2013-01-19 14:09:00,62.4,37.1,28.65,South,180,10.4,10.4,39,0.00,CLR,,0.00,WeatherDisplay:10.37,2013-01-19 20:09:00,
2013-01-19 14:14:00,62.6,37.3,28.65,SSE,158,10.4,10.4,39,0.00,CLR,,0.00,WeatherDisplay:10.37,2013-01-19 20:14:00,
2013-01-19 14:20:00,62.3,37.0,28.65,SSW,195,9.0,12.0,39,0.00,CLR,,0.00,WeatherDisplay:10.37,2013-01-19 20:20:00,
2013-01-19 14:25:00,63.1,37.7,28.65,South,184,5.0,9.0,39,0.00,CLR,,0.00,WeatherDisplay:10.37,2013-01-19 20:25:00,
2013-01-19 14:30:00,62.5,37.2,28.65,SE,142,6.0,10.0,39,0.00,CLR,,0.00,WeatherDisplay:10.37,2013-01-19 20:30:00,
2013-01-19 14:35:00,62.7,37.3,28.65,East,82,5.0,7.0,39,0.00,CLR,,0.00,WeatherDisplay:10.37,2013-01-19 20:35:00,
2013-01-19 14:40:00,63.5,38.1,28.64,SSE,158,10.9,10.9,39,0.00,CLR,,0.00,WeatherDisplay:10.37,2013-01-19 20:40:00,
2013-01-19 14:45:00,62.6,37.3,28.64,South,180,13.0,13.0,39,0.00,CLR,,0.00,WeatherDisplay:10.37,2013-01-19 20:45:00,
2013-01-19 14:50:00,62.6,37.3,28.64,ESE,112,11.5,11.5,39,0.00,CLR,,0.00,WeatherDisplay:10.37,2013-01-19 20:50:00,
2013-01-19 14:56:00,62.6,37.3,28.63,ENE,68,6.9,6.9,39,0.00,CLR,,0.00,WeatherDisplay:10.37,2013-01-19 20:56:00,
2013-01-19 15:02:00,62.6,37.3,28.63,SW,225,9.2,9.2,39,0.00,CLR,,0.00,WeatherDisplay:10.37,2013-01-19 21:02:00,
2013-01-19 15:07:00,62.6,37.9,28.64,SSE,158,8.1,8.1,40,0.00,CLR,,0.00,WeatherDisplay:10.37,2013-01-19 21:07:00,
2013-01-19 15:12:00,63.3,38.6,28.64,SW,225,6.8,6.8,40,0.00,CLR,,0.00,WeatherDisplay:10.37,2013-01-19 21:12:00,
2013-01-19 15:18:00,62.8,38.1,28.64,South,180,6.3,6.3,40,0.00,CLR,,0.00,WeatherDisplay:10.37,2013-01-19 21:18:00,
2013-01-19 15:23:00,62.1,38.1,28.64,ESE,112,10.4,10.4,41,0.00,CLR,,0.00,WeatherDisplay:10.37,2013-01-19 21:23:00,
2013-01-19 15:28:00,61.7,37.7,28.65,NNW,338,10.4,10.4,41,0.00,CLR,,0.00,WeatherDisplay:10.37,2013-01-19 21:28:00,
2013-01-19 15:33:00,62.1,38.1,28.65,ESE,112,10.4,10.4,41,0.00,CLR,,0.00,WeatherDisplay:10.37,2013-01-19 21:33:00,
2013-01-19 15:39:00,62.2,38.2,28.65,East,90,8.3,8.3,41,0.00,CLR,,0.00,WeatherDisplay:10.37,2013-01-19 21:39:00,
2013-01-19 15:44:00,61.7,37.7,28.65,West,270,4.6,4.6,41,0.00,CLR,,0.00,WeatherDisplay:10.37,2013-01-19 21:44:00,
2013-01-19 15:49:00,61.3,38.0,28.65,South,180,8.1,8.1,42,0.00,CLR,,0.00,WeatherDisplay:10.37,2013-01-19 21:49:00,
2013-01-19 15:54:00,61.0,37.7,28.65,East,90,5.8,5.8,42,0.00,CLR,,0.00,WeatherDisplay:10.37,2013-01-19 21:54:00,
2013-01-19 15:59:00,61.0,37.7,28.65,SSE,158,10.4,10.4,42,0.00,CLR,,0.00,WeatherDisplay:10.37,2013-01-19 21:59:00,
2013-01-19 16:05:00,61.0,37.7,28.65,SSE,165,5.0,7.0,42,0.00,CLR,,0.00,WeatherDisplay:10.37,2013-01-19 22:05:00,
2013-01-19 16:10:00,60.8,37.5,28.65,South,176,7.0,9.0,42,0.00,CLR,,0.00,WeatherDisplay:10.37,2013-01-19 22:10:00,
2013-01-19 16:15:00,60.8,37.5,28.65,South,174,6.0,10.0,42,0.00,CLR,,0.00,WeatherDisplay:10.37,2013-01-19 22:15:00,
2013-01-19 16:22:00,60.6,37.4,28.65,South,180,8.1,8.1,42,0.00,CLR,,0.00,WeatherDisplay:10.37,2013-01-19 22:22:00,
2013-01-19 16:27:00,60.3,37.1,28.65,SSE,158,10.4,10.4,42,0.00,CLR,,0.00,WeatherDisplay:10.37,2013-01-19 22:27:00,
2013-01-19 16:33:00,60.3,37.1,28.65,South,180,8.1,8.1,42,0.00,CLR,,0.00,WeatherDisplay:10.37,2013-01-19 22:33:00,
2013-01-19 16:38:00,60.1,37.5,28.65,SE,135,10.4,10.4,43,0.00,CLR,,0.00,WeatherDisplay:10.37,2013-01-19 22:38:00,
2013-01-19 16:43:00,59.9,37.3,28.66,ESE,112,9.2,9.2,43,0.00,CLR,,0.00,WeatherDisplay:10.37,2013-01-19 22:43:00,
2013-01-19 16:48:00,59.7,37.2,28.66,NNE,22,8.1,8.1,43,0.00,CLR,,0.00,WeatherDisplay:10.37,2013-01-19 22:48:00,
2013-01-19 16:53:00,59.4,37.5,28.65,West,270,5.8,5.8,44,0.00,CLR,,0.00,WeatherDisplay:10.37,2013-01-19 22:53:00,
2013-01-19 16:59:00,59.2,37.3,28.65,SSW,202,5.8,5.8,44,0.00,CLR,,0.00,WeatherDisplay:10.37,2013-01-19 22:59:00,
2013-01-19 17:04:00,58.8,37.5,28.66,SW,225,5.8,5.8,45,0.00,CLR,,0.00,WeatherDisplay:10.37,2013-01-19 23:04:00,
2013-01-19 17:10:00,58.6,37.3,28.66,South,180,6.9,6.9,45,0.00,CLR,,0.00,WeatherDisplay:10.37,2013-01-19 23:10:00,
2013-01-19 17:15:00,58.4,37.7,28.66,SSW,201,5.0,7.0,46,0.00,CLR,,0.00,WeatherDisplay:10.37,2013-01-19 23:15:00,
2013-01-19 17:20:00,57.7,37.0,28.66,South,180,4.6,4.6,46,0.00,CLR,,0.00,WeatherDisplay:10.37,2013-01-19 23:20:00,
2013-01-19 17:25:00,57.2,37.1,28.66,WNW,292,4.7,4.7,47,0.00,CLR,,0.00,WeatherDisplay:10.37,2013-01-19 23:25:00,
2013-01-19 17:30:00,56.8,37.3,28.66,ESE,112,3.7,3.7,48,0.00,CLR,,0.00,WeatherDisplay:10.37,2013-01-19 23:30:00,
2013-01-19 17:35:00,56.5,37.0,28.66,NE,45,2.7,2.7,48,0.00,CLR,,0.00,WeatherDisplay:10.37,2013-01-19 23:35:00,
2013-01-19 17:40:00,56.3,37.4,28.66,South,180,3.5,3.5,49,0.00,CLR,,0.00,WeatherDisplay:10.37,2013-01-19 23:40:00,
2013-01-19 17:45:00,55.9,37.0,28.66,NW,315,1.7,1.7,49,0.00,CLR,,0.00,WeatherDisplay:10.37,2013-01-19 23:45:00,
2013-01-19 17:52:00,55.4,37.1,28.66,South,180,1.7,1.7,50,0.00,CLR,,0.00,WeatherDisplay:10.37,2013-01-19 23:52:00,
2013-01-19 17:57:00,55.0,36.7,28.66,SSE,158,0.0,0.0,50,0.00,CLR,,0.00,WeatherDisplay:10.37,2013-01-19 23:57:00,
2013-01-19 18:02:00,54.5,36.7,28.66,NNE,22,0.0,0.0,51,0.00,CLR,,0.00,WeatherDisplay:10.37,2013-01-20 00:02:00,
2013-01-19 18:07:00,54.0,36.8,28.67,North,360,0.0,0.0,52,0.00,CLR,,0.00,WeatherDisplay:10.37,2013-01-20 00:07:00,
2013-01-19 18:13:00,53.2,36.5,28.67,North,360,0.0,0.0,53,0.00,CLR,,0.00,WeatherDisplay:10.37,2013-01-20 00:13:00,
2013-01-19 18:18:00,52.7,36.5,28.68,North,360,0.0,0.0,54,0.00,CLR,,0.00,WeatherDisplay:10.37,2013-01-20 00:18:00,
2013-01-19 18:23:00,52.5,36.8,28.68,SSE,158,0.0,0.0,55,0.00,CLR,,0.00,WeatherDisplay:10.37,2013-01-20 00:23:00,
2013-01-19 18:28:00,52.9,36.7,28.69,East,90,0.0,0.0,54,0.00,CLR,,0.00,WeatherDisplay:10.37,2013-01-20 00:28:00,
2013-01-19 18:33:00,51.6,35.9,28.69,NW,315,1.1,1.3,55,0.00,CLR,,0.00,WeatherDisplay:10.37,2013-01-20 00:33:00,
2013-01-19 18:38:00,51.4,36.2,28.69,NNW,338,1.7,1.7,56,0.00,CLR,,0.00,WeatherDisplay:10.37,2013-01-20 00:38:00,
2013-01-19 18:43:00,51.6,36.4,28.70,West,270,0.0,0.0,56,0.00,CLR,,0.00,WeatherDisplay:10.37,2013-01-20 00:43:00,
2013-01-19 18:48:00,51.4,36.2,28.70,North,360,0.0,0.0,56,0.00,CLR,,0.00,WeatherDisplay:10.37,2013-01-20 00:48:00,
2013-01-19 18:54:00,51.1,35.9,28.70,West,270,0.0,0.0,56,0.00,CLR,,0.00,WeatherDisplay:10.37,2013-01-20 00:54:00,
2013-01-19 18:59:00,50.4,36.2,28.70,West,270,0.0,0.0,58,0.00,CLR,,0.00,WeatherDisplay:10.37,2013-01-20 00:59:00,
2013-01-19 19:04:00,50.0,35.8,28.71,South,180,0.0,0.0,58,0.00,CLR,,0.00,WeatherDisplay:10.37,2013-01-20 01:04:00,
2013-01-19 19:09:00,49.8,36.0,28.71,South,180,0.0,0.0,59,0.00,CLR,,0.00,WeatherDisplay:10.37,2013-01-20 01:09:00,
2013-01-19 19:14:00,49.3,35.6,28.71,South,180,0.0,0.0,59,0.00,CLR,,0.00,WeatherDisplay:10.37,2013-01-20 01:14:00,
2013-01-19 19:19:00,48.9,35.6,28.71,South,180,0.0,0.0,60,0.00,CLR,,0.00,WeatherDisplay:10.37,2013-01-20 01:19:00,
2013-01-19 19:24:00,48.7,35.4,28.71,South,180,0.0,0.0,60,0.00,CLR,,0.00,WeatherDisplay:10.37,2013-01-20 01:24:00,
2013-01-19 19:29:00,48.2,35.4,28.72,SW,225,0.0,0.0,61,0.00,CLR,,0.00,WeatherDisplay:10.37,2013-01-20 01:29:00,
2013-01-19 19:35:00,48.6,35.7,28.72,SSE,156,0.0,0.0,61,0.00,CLR,,0.00,WeatherDisplay:10.37,2013-01-20 01:35:00,
2013-01-19 19:40:00,48.6,35.8,28.72,East,89,0.0,0.0,61,0.00,CLR,,0.00,WeatherDisplay:10.37,2013-01-20 01:40:00,
2013-01-19 19:45:00,49.0,36.1,28.72,East,87,0.0,1.0,61,0.00,CLR,,0.00,WeatherDisplay:10.37,2013-01-20 01:45:00,
2013-01-19 19:50:00,49.0,36.1,28.72,ESE,113,0.0,2.0,61,0.00,CLR,,0.00,WeatherDisplay:10.37,2013-01-20 01:50:00,
2013-01-19 19:55:00,48.6,36.2,28.72,SSW,202,0.0,0.0,62,0.00,CLR,,0.00,WeatherDisplay:10.37,2013-01-20 01:55:00,
2013-01-19 20:00:00,48.6,36.2,28.72,East,90,0.0,0.0,62,0.00,CLR,,0.00,WeatherDisplay:10.37,2013-01-20 02:00:00,
2013-01-19 20:05:00,48.4,36.0,28.73,SE,135,0.0,0.0,62,0.00,CLR,,0.00,WeatherDisplay:10.37,2013-01-20 02:05:00,
2013-01-19 20:10:00,48.2,35.8,28.73,South,180,0.0,0.0,62,0.00,CLR,,0.00,WeatherDisplay:10.37,2013-01-20 02:10:00,
2013-01-19 20:15:00,47.8,35.8,28.73,South,180,0.0,0.0,63,0.00,CLR,,0.00,WeatherDisplay:10.37,2013-01-20 02:15:00,
2013-01-19 20:20:00,47.7,35.7,28.73,East,90,0.0,0.0,63,0.00,CLR,,0.00,WeatherDisplay:10.37,2013-01-20 02:20:00,
2013-01-19 20:25:00,48.0,36.4,28.73,SW,225,0.0,0.0,64,0.00,CLR,,0.00,WeatherDisplay:10.37,2013-01-20 02:25:00,
2013-01-19 20:30:00,47.7,36.1,28.74,SE,135,0.0,0.0,64,0.00,CLR,,0.00,WeatherDisplay:10.37,2013-01-20 02:30:00,
2013-01-19 20:35:00,47.7,36.1,28.74,South,180,0.0,0.0,64,0.00,CLR,,0.00,WeatherDisplay:10.37,2013-01-20 02:35:00,
2013-01-19 20:41:00,47.8,36.2,28.74,SW,225,2.3,2.3,64,0.00,CLR,,0.00,WeatherDisplay:10.37,2013-01-20 02:41:00,
2013-01-19 20:46:00,47.7,36.1,28.74,South,180,1.1,0.0,64,0.00,CLR,,0.00,WeatherDisplay:10.37,2013-01-20 02:46:00,
2013-01-19 20:51:00,47.3,36.1,28.74,SW,225,0.0,0.0,65,0.00,CLR,,0.00,WeatherDisplay:10.37,2013-01-20 02:51:00,
2013-01-19 20:57:00,47.5,36.3,28.74,NE,45,1.1,1.1,65,0.00,CLR,,0.00,WeatherDisplay:10.37,2013-01-20 02:57:00,
2013-01-19 21:02:00,47.3,36.1,28.74,WSW,248,0.0,0.0,65,0.00,CLR,,0.00,WeatherDisplay:10.37,2013-01-20 03:02:00,
2013-01-19 21:07:00,47.1,35.9,28.74,SSE,158,0.0,0.0,65,0.00,CLR,,0.00,WeatherDisplay:10.37,2013-01-20 03:07:00,
2013-01-19 21:13:00,47.1,35.9,28.74,ENE,68,0.0,0.0,65,0.00,CLR,,0.00,WeatherDisplay:10.37,2013-01-20 03:13:00,
2013-01-19 21:19:00,46.8,36.0,28.74,ESE,112,0.0,0.0,66,0.00,CLR,,0.00,WeatherDisplay:10.37,2013-01-20 03:19:00,
2013-01-19 21:24:00,46.6,35.8,28.74,West,270,0.0,0.0,66,0.00,CLR,,0.00,WeatherDisplay:10.37,2013-01-20 03:24:00,
2013-01-19 21:29:00,45.9,35.6,28.74,SSW,202,0.0,0.0,67,0.00,CLR,,0.00,WeatherDisplay:10.37,2013-01-20 03:29:00,
2013-01-19 21:35:00,45.5,35.5,28.74,ENE,68,0.0,0.0,68,0.00,CLR,,0.00,WeatherDisplay:10.37,2013-01-20 03:35:00,
2013-01-19 21:40:00,45.1,35.5,28.74,West,270,0.0,0.0,69,0.00,CLR,,0.00,WeatherDisplay:10.37,2013-01-20 03:40:00,
2013-01-19 21:45:00,45.0,35.4,28.74,SSW,202,0.0,0.0,69,0.00,CLR,,0.00,WeatherDisplay:10.37,2013-01-20 03:45:00,
2013-01-19 21:50:00,45.0,35.8,28.74,SSW,202,0.0,0.0,70,0.00,CLR,,0.00,WeatherDisplay:10.37,2013-01-20 03:50:00,
2013-01-19 21:55:00,44.6,35.4,28.74,SSW,202,0.0,0.0,70,0.00,CLR,,0.00,WeatherDisplay:10.37,2013-01-20 03:55:00,
2013-01-19 22:00:00,44.4,35.6,28.74,South,180,0.0,0.0,71,0.00,CLR,,0.00,WeatherDisplay:10.37,2013-01-20 04:00:00,
2013-01-19 22:05:00,44.2,35.4,28.75,South,180,0.0,0.0,71,0.00,CLR,,0.00,WeatherDisplay:10.37,2013-01-20 04:05:00,
2013-01-19 22:10:00,43.9,35.1,28.75,South,180,0.0,0.0,71,0.00,CLR,,0.00,WeatherDisplay:10.37,2013-01-20 04:10:00,
2013-01-19 22:16:00,43.5,35.1,28.75,South,180,0.0,0.0,72,0.00,CLR,,0.00,WeatherDisplay:10.37,2013-01-20 04:16:00,
2013-01-19 22:21:00,43.2,35.1,28.75,SE,135,0.0,0.0,73,0.00,CLR,,0.00,WeatherDisplay:10.37,2013-01-20 04:21:00,
2013-01-19 22:26:00,42.8,35.1,28.75,SSW,202,0.0,0.0,74,0.00,CLR,,0.00,WeatherDisplay:10.37,2013-01-20 04:26:00,
2013-01-19 22:31:00,42.1,34.7,28.75,SSW,202,0.0,0.0,75,0.00,CLR,,0.00,WeatherDisplay:10.37,2013-01-20 04:31:00,
2013-01-19 22:36:00,41.9,34.9,28.75,SW,225,0.0,0.0,76,0.00,CLR,,0.00,WeatherDisplay:10.37,2013-01-20 04:36:00,
2013-01-19 22:42:00,41.7,35.0,28.75,South,180,0.0,0.0,77,0.00,CLR,,0.00,WeatherDisplay:10.37,2013-01-20 04:42:00,
2013-01-19 22:47:00,41.7,35.0,28.75,South,180,0.0,0.0,77,0.00,CLR,,0.00,WeatherDisplay:10.37,2013-01-20 04:47:00,
2013-01-19 22:53:00,41.4,34.7,28.75,South,180,0.0,0.0,77,0.00,CLR,,0.00,WeatherDisplay:10.37,2013-01-20 04:53:00,
2013-01-19 22:58:00,41.2,34.5,28.75,West,270,0.0,0.0,77,0.00,CLR,,0.00,WeatherDisplay:10.37,2013-01-20 04:58:00,
2013-01-19 23:00:00,41.0,34.3,28.75,SSE,158,0.0,0.0,77,0.00,CLR,,0.00,WeatherDisplay:10.37,2013-01-20 05:00:00,
2013-01-19 23:01:00,41.0,34.7,28.75,SSE,158,0.0,0.0,78,0.00,CLR,,0.00,WeatherDisplay:10.37,2013-01-20 05:01:00,
2013-01-19 23:03:00,41.2,34.9,28.75,SSE,158,0.0,0.0,78,0.00,CLR,,0.00,WeatherDisplay:10.37,2013-01-20 05:03:00,
2013-01-19 23:08:00,41.2,34.9,28.75,SSE,158,0.0,0.0,78,0.00,CLR,,0.00,WeatherDisplay:10.37,2013-01-20 05:08:00,
2013-01-19 23:13:00,41.2,34.5,28.75,SSE,158,0.0,0.0,77,0.00,CLR,,0.00,WeatherDisplay:10.37,2013-01-20 05:13:00,
2013-01-19 23:18:00,41.0,34.3,28.75,SSE,158,0.0,0.0,77,0.00,CLR,,0.00,WeatherDisplay:10.37,2013-01-20 05:18:00,
2013-01-19 23:23:00,40.6,34.0,28.75,SSE,158,0.0,0.0,77,0.00,CLR,,0.00,WeatherDisplay:10.37,2013-01-20 05:23:00,
2013-01-19 23:28:00,40.1,33.8,28.75,South,180,0.0,0.0,78,0.00,CLR,,0.00,WeatherDisplay:10.37,2013-01-20 05:28:00,
2013-01-19 23:33:00,39.7,34.0,28.75,ENE,68,0.0,0.0,80,0.00,CLR,,0.00,WeatherDisplay:10.37,2013-01-20 05:33:00,
2013-01-19 23:38:00,39.4,34.1,28.75,SSW,202,0.0,0.0,81,0.00,CLR,,0.00,WeatherDisplay:10.37,2013-01-20 05:38:00,
2013-01-19 23:43:00,39.0,33.7,28.75,SSE,158,0.0,0.0,81,0.00,CLR,,0.00,WeatherDisplay:10.37,2013-01-20 05:43:00,
2013-01-19 23:48:00,39.0,34.0,28.75,South,180,0.0,0.0,82,0.00,CLR,,0.00,WeatherDisplay:10.37,2013-01-20 05:48:00,
2013-01-19 23:53:00,38.7,34.0,28.75,SSE,158,0.0,0.0,83,0.00,CLR,,0.00,WeatherDisplay:10.37,2013-01-20 05:53:00,
2013-01-19 23:58:00,38.5,33.8,28.75,SSW,202,0.0,0.0,83,0.00,CLR,,0.00,WeatherDisplay:10.37,2013-01-20 05:58:00,